When you browse on this site, cookies collect data to enhance your experience and personalize the content and advertising you see.
Visit our Privacy Policy to learn more. By continuing to use the site, you agree to this use of cookies and data.
  • Em Portugal
  • Lista de países
  • Para 7 dias
  • Temperatura da água
  • Mapas de satélite
  • Mapa do tempo
  • Widgets de tempo
  • user-avatar
    Iniciar Sessão

    Previsão horária em Hrodna

    Hoje, 27 Maio, Segunda-feira

    Tempo Temperatura Precipitação Vento Pressão Humidade
    00:00 +12°C° 0 mm 4 m/s 746 mmHg 85%
    01:00 +12°C° 0 mm 5 m/s 746 mmHg 83%
    02:00 +13°C° 0 mm 5 m/s 746 mmHg 80%
    03:00 +13°C° 0 mm 5 m/s 746 mmHg 81%
    04:00 +12°C° 0 mm 4 m/s 746 mmHg 83%
    05:00 +12°C° 0 mm 4 m/s 746 mmHg 84%
    06:00 +14°C° 0 mm 5 m/s 746 mmHg 80%
    07:00 +15°C° 0 mm 5 m/s 746 mmHg 77%
    08:00 +17°C° 0 mm 6 m/s 746 mmHg 73%
    09:00 +19°C° 0 mm 6 m/s 746 mmHg 69%
    10:00 +21°C° 0 mm 6 m/s 746 mmHg 65%
    11:00 +22°C° 0 mm 7 m/s 746 mmHg 62%
    12:00 +22°C° 0 mm 7 m/s 746 mmHg 60%
    13:00 +23°C° 0 mm 7 m/s 746 mmHg 58%
    14:00 +24°C° 0 mm 7 m/s 746 mmHg 57%
    15:00 +24°C° 0.1 mm 6 m/s 746 mmHg 58%
    16:00 +23°C° 0.1 mm 6 m/s 745 mmHg 60%
    17:00 +23°C° 0.1 mm 5 m/s 745 mmHg 62%
    18:00 +22°C° 0.1 mm 4 m/s 745 mmHg 69%
    19:00 +21°C° 0.1 mm 3 m/s 746 mmHg 75%
    20:00 +19°C° 0.1 mm 3 m/s 746 mmHg 81%
    21:00 +18°C° 0 mm 2 m/s 746 mmHg 85%
    22:00 +17°C° 0 mm 2 m/s 746 mmHg 89%
    23:00 +16°C° 0 mm 2 m/s 746 mmHg 92%

    Amanhã, 28 Maio, Terça-feira

    Tempo Temperatura Precipitação Vento Pressão Humidade
    00:00 +16°C° 0 mm 2 m/s 746 mmHg 93%
    01:00 +16°C° 0 mm 2 m/s 746 mmHg 93%
    02:00 +16°C° 0 mm 2 m/s 745 mmHg 94%
    03:00 +16°C° 0 mm 2 m/s 745 mmHg 94%
    04:00 +16°C° 0 mm 2 m/s 745 mmHg 95%
    05:00 +16°C° 0 mm 2 m/s 744 mmHg 95%
    06:00 +16°C° 1.9 mm 3 m/s 744 mmHg 95%
    07:00 +16°C° 1.9 mm 3 m/s 744 mmHg 95%
    08:00 +17°C° 1.9 mm 4 m/s 743 mmHg 96%
    09:00 +17°C° 1.4 mm 5 m/s 743 mmHg 93%
    10:00 +19°C° 1.4 mm 5 m/s 743 mmHg 90%
    11:00 +20°C° 1.4 mm 5 m/s 742 mmHg 87%
    12:00 +21°C° 0.4 mm 5 m/s 742 mmHg 83%
    13:00 +22°C° 0.4 mm 5 m/s 742 mmHg 79%
    14:00 +25°C° 0.4 mm 5 m/s 742 mmHg 75%
    15:00 +23°C° 1 mm 5 m/s 742 mmHg 77%
    16:00 +23°C° 1 mm 5 m/s 742 mmHg 79%
    17:00 +22°C° 1 mm 5 m/s 742 mmHg 81%
    18:00 +21°C° 1 mm 4 m/s 742 mmHg 85%
    19:00 +20°C° 1 mm 3 m/s 742 mmHg 88%
    20:00 +18°C° 1 mm 2 m/s 743 mmHg 92%
    21:00 +18°C° 0.3 mm 2 m/s 743 mmHg 93%
    22:00 +19°C° 0.3 mm 1 m/s 743 mmHg 94%
    23:00 +18°C° 0.3 mm 1 m/s 743 mmHg 95%

    Depois de amanhã, 29 Maio, Quarta-feira

    Tempo Temperatura Precipitação Vento Pressão Humidade
    00:00 +18°C° 0.7 mm 1 m/s 743 mmHg 96%
    01:00 +16°C° 0.7 mm 2 m/s 744 mmHg 96%
    02:00 +16°C° 0.7 mm 2 m/s 744 mmHg 97%
    03:00 +14°C° 0.4 mm 3 m/s 744 mmHg 97%
    04:00 +13°C° 0.4 mm 4 m/s 744 mmHg 97%
    05:00 +13°C° 0.4 mm 4 m/s 745 mmHg 96%
    06:00 +12°C° 0.1 mm 4 m/s 745 mmHg 95%
    07:00 +12°C° 0.1 mm 5 m/s 746 mmHg 95%
    08:00 +10°C° 0.1 mm 5 m/s 746 mmHg 94%
    09:00 +12°C° 0 mm 5 m/s 747 mmHg 91%
    10:00 +12°C° 0 mm 5 m/s 747 mmHg 88%
    11:00 +12°C° 0 mm 5 m/s 748 mmHg 84%
    12:00 +14°C° 0 mm 4 m/s 748 mmHg 78%
    13:00 +15°C° 0 mm 4 m/s 748 mmHg 72%
    14:00 +17°C° 0 mm 4 m/s 749 mmHg 66%
    15:00 +17°C° 0 mm 4 m/s 749 mmHg 66%
    16:00 +18°C° 0 mm 4 m/s 749 mmHg 66%
    17:00 +18°C° 0 mm 4 m/s 750 mmHg 66%
    18:00 +17°C° 0 mm 4 m/s 750 mmHg 70%
    19:00 +15°C° 0 mm 4 m/s 750 mmHg 74%
    20:00 +13°C° 0 mm 4 m/s 750 mmHg 78%
    21:00 +12°C° 0 mm 4 m/s 751 mmHg 78%
    22:00 +10°C° 0 mm 4 m/s 751 mmHg 78%
    23:00 +9°C° 0 mm 3 m/s 752 mmHg 77%

    30 Maio, Quinta-feira

    Tempo Temperatura Precipitação Vento Pressão Humidade
    00:00 +8°C° 0 mm 3 m/s 752 mmHg 79%
    01:00 +8°C° 0 mm 3 m/s 752 mmHg 81%
    02:00 +7°C° 0 mm 3 m/s 752 mmHg 83%
    03:00 +7°C° 0 mm 3 m/s 752 mmHg 84%
    04:00 +7°C° 0 mm 3 m/s 752 mmHg 86%
    05:00 +7°C° 0 mm 3 m/s 752 mmHg 87%
    06:00 +9°C° 0 mm 3 m/s 752 mmHg 83%
    07:00 +10°C° 0 mm 3 m/s 753 mmHg 80%
    08:00 +12°C° 0 mm 3 m/s 753 mmHg 76%
    09:00 +15°C° 0 mm 2 m/s 753 mmHg 70%
    10:00 +17°C° 0 mm 2 m/s 753 mmHg 64%
    11:00 +19°C° 0 mm 2 m/s 753 mmHg 58%
    12:00 +19°C° 0 mm 2 m/s 753 mmHg 55%
    13:00 +20°C° 0 mm 2 m/s 752 mmHg 52%
    14:00 +21°C° 0 mm 2 m/s 752 mmHg 48%
    15:00 +21°C° 0 mm 2 m/s 752 mmHg 50%
    16:00 +21°C° 0 mm 2 m/s 752 mmHg 51%
    17:00 +21°C° 0 mm 2 m/s 752 mmHg 52%
    18:00 +19°C° 0 mm 2 m/s 752 mmHg 59%
    19:00 +18°C° 0 mm 2 m/s 752 mmHg 65%
    20:00 +18°C° 0 mm 1 m/s 752 mmHg 72%
    21:00 +15°C° 0 mm 1 m/s 752 mmHg 75%
    22:00 +14°C° 0 mm 1 m/s 752 mmHg 78%
    23:00 +13°C° 0 mm 1 m/s 752 mmHg 81%

    31 Maio, Sexta-feira

    Tempo Temperatura Precipitação Vento Pressão Humidade
    00:00 +13°C° 0 mm 1 m/s 752 mmHg 82%
    01:00 +12°C° 0 mm 1 m/s 752 mmHg 83%
    02:00 +12°C° 0 mm 1 m/s 752 mmHg 84%
    03:00 +12°C° 0 mm 1 m/s 752 mmHg 84%
    04:00 +12°C° 0 mm 1 m/s 751 mmHg 84%
    05:00 +12°C° 0 mm 1 m/s 751 mmHg 84%
    06:00 +13°C° 0 mm 1 m/s 751 mmHg 80%
    07:00 +15°C° 0 mm 1 m/s 751 mmHg 76%
    08:00 +18°C° 0 mm 1 m/s 750 mmHg 73%
    09:00 +18°C° 0 mm 2 m/s 750 mmHg 70%
    10:00 +19°C° 0 mm 2 m/s 750 mmHg 67%
    11:00 +21°C° 0 mm 2 m/s 749 mmHg 64%
    12:00 +21°C° 0 mm 3 m/s 749 mmHg 63%
    13:00 +22°C° 0 mm 3 m/s 748 mmHg 62%
    14:00 +22°C° 0 mm 3 m/s 748 mmHg 62%
    15:00 +22°C° 0 mm 3 m/s 748 mmHg 63%
    16:00 +22°C° 0 mm 3 m/s 748 mmHg 64%
    17:00 +21°C° 0 mm 3 m/s 747 mmHg 66%
    18:00 +20°C° 0 mm 4 m/s 748 mmHg 71%
    19:00 +17°C° 0 mm 5 m/s 748 mmHg 76%
    20:00 +16°C° 0 mm 5 m/s 749 mmHg 81%
    21:00 +14°C° 0 mm 6 m/s 749 mmHg 80%
    22:00 +10°C° 0 mm 6 m/s 750 mmHg 79%
    23:00 +8°C° 0 mm 7 m/s 751 mmHg 78%

    1 Junho, Sábado

    Tempo Temperatura Precipitação Vento Pressão Humidade
    00:00 +8°C° 0.1 mm 6 m/s 751 mmHg 79%
    01:00 +7°C° 0.1 mm 6 m/s 752 mmHg 80%
    02:00 +7°C° 0.1 mm 5 m/s 752 mmHg 81%
    03:00 +7°C° 0 mm 5 m/s 753 mmHg 81%
    04:00 +7°C° 0 mm 5 m/s 754 mmHg 81%
    05:00 +6°C° 0 mm 5 m/s 754 mmHg 81%
    06:00 +7°C° 0 mm 6 m/s 755 mmHg 77%
    07:00 +8°C° 0 mm 6 m/s 755 mmHg 74%
    08:00 +9°C° 0 mm 7 m/s 755 mmHg 70%
    09:00 +10°C° 0 mm 6 m/s 756 mmHg 66%
    10:00 +13°C° 0 mm 6 m/s 756 mmHg 61%
    11:00 +14°C° 0 mm 6 m/s 756 mmHg 57%
    12:00 +14°C° 0 mm 6 m/s 756 mmHg 55%
    13:00 +15°C° 0 mm 6 m/s 756 mmHg 54%
    14:00 +16°C° 0 mm 6 m/s 757 mmHg 53%
    15:00 +15°C° 0 mm 6 m/s 757 mmHg 53%
    16:00 +15°C° 0 mm 7 m/s 757 mmHg 54%
    17:00 +15°C° 0 mm 7 m/s 757 mmHg 54%
    18:00 +13°C° 0 mm 6 m/s 757 mmHg 59%
    19:00 +12°C° 0 mm 5 m/s 758 mmHg 63%
    20:00 +11°C° 0 mm 4 m/s 758 mmHg 67%
    21:00 +10°C° 0 mm 4 m/s 758 mmHg 68%
    22:00 +8°C° 0 mm 4 m/s 759 mmHg 69%
    23:00 +7°C° 0 mm 4 m/s 759 mmHg 70%
    Mostrar mais